Wind_Speed
49 49 49 50 50 51 51 52 53 53 52 53 54 54 54 54 54 54 54 54 54 54 54 53 53 52 52 52 52 52 52 53 53 54 54 54 54 53
47 48 48 49 49 50 50 51 51 51 50 50 51 51 51 52 52 53 52 52 52 53 53 53 52 52 51 51 50 50 50 51 51 52 52 53 53 53
48 48 49 49 49 49 49 49 49 48 47 46 46 47 48 49 50 51 51 52 52 52 52 51 51 51 50 49 49 50 50 50 50 50 51 51 51 51
47 48 48 48 48 48 47 47 46 46 46 44 44 45 46 48 49 50 51 51 51 51 50 49 49 49 48 48 48 48 48 49 49 49 49 49 50 50
44 45 45 46 46 46 45 44 44 44 44 44 44 45 46 47 48 49 49 50 49 49 48 48 47 47 47 46 46 46 46 46 46 46 46 46 46 46
42 42 43 43 43 43 43 43 43 43 43 43 44 45 46 47 47 47 47 47 47 47 47 47 46 46 45 45 44 43 43 42 42 42 43 43 43 43
41 41 40 40 40 41 41 41 42 42 42 43 43 44 45 46 46 46 45 45 45 45 45 45 45 45 44 43 42 41 41 41 40 40 40 41 41 42
39 39 38 38 39 39 39 40 41 41 42 42 43 43 43 44 43 43 42 42 42 43 43 43 43 42 41 41 40 40 39 39 39 39 39 39 39 40
36 36 36 37 38 38 37 38 38 39 39 40 39 40 40 40 41 40 40 40 41 41 41 41 41 40 39 38 38 38 38 37 36 36 35 35 36 37
35 35 35 35 36 35 35 35 36 37 37 37 37 37 37 38 38 38 39 39 39 39 39 39 39 38 37 36 36 36 35 35 35 34 33 33 34 35
33 33 33 34 34 34 34 34 34 34 35 35 35 35 35 36 36 36 36 36 36 37 37 37 36 36 36 35 35 35 34 34 33 32 32 32 32 32
31 31 31 32 32 32 32 32 32 32 33 33 33 33 33 33 34 34 35 34 34 34 35 35 34 33 32 33 33 33 32 32 31 31 31 31 31 30
30 30 30 30 30 30 30 30 30 31 31 31 32 32 31 31 31 32 33 32 32 32 32 31 29 30 30 30 30 30 29 29 29 29 29 29 29 28
28 28 28 29 29 29 28 28 29 29 29 30 30 30 29 29 29 30 29 29 29 28 27 27 26 27 27 27 26 27 27 28 28 28 27 27 26 26
26 27 27 27 27 27 27 27 27 27 27 28 28 28 28 28 28 28 27 26 26 25 24 24 24 24 24 24 23 24 24 25 26 25 25 24 24 24
24 25 25 25 24 24 25 25 25 25 25 25 26 26 26 26 25 25 24 23 22 21 21 20 20 20 20 20 20 20 21 21 22 22 22 22 22 22
22 22 23 23 22 23 23 23 24 24 24 24 24 24 23 22 22 21 21 20 19 18 18 18 18 18 17 17 17 18 18 18 18 19 19 19 19 19
21 21 21 21 21 21 21 22 22 22 22 23 22 22 21 20 19 19 19 17 17 16 16 16 15 15 15 15 15 16 16 16 16 16 17 17 16 17
19 19 19 19 19 20 20 20 20 20 20 20 19 19 18 17 16 16 15 14 14 14 13 13 13 13 13 13 14 14 14 14 14 14 15 15 14 14
18 18 18 18 18 18 19 19 19 18 18 18 16 15 14 13 13 13 12 12 12 12 12 12 12 12 11 11 11 12 12 12 13 13 13 13 12 12
17 17 17 17 17 17 17 17 17 16 16 15 14 13 12 11 11 11 11 11 10 10 10 10 10 10 10 10 10 10 11 11 10 10 10 10 10 10
15 15 15 15 15 15 15 15 15 14 14 13 12 11 10 10 10 10 9 9 9 9 9 9 9 8 9 9 9 9 9 8 8 8 8 8 8 8
14 14 14 14 13 13 14 14 13 13 12 11 10 9 9 9 8 8 8 8 8 8 8 8 8 8 8 7 7 7 8 8 7 7 8 8 8 8
Wind_Direction
279 279 279 279 280 280 280 279 279 278 277 275 274 273 272 273 273 274 275 275 275 275 275 275 275 274 273 272 272 271 270 270 269 269 269 268 267 267
278 278 279 279 280 280 280 280 279 279 278 276 274 273 272 272 273 274 275 275 275 275 275 275 275 274 274 273 272 272 271 271 271 271 270 269 268 268
279 279 279 280 281 281 280 280 279 278 277 276 275 274 274 274 274 274 275 276 276 276 276 276 275 274 273 274 273 273 272 272 272 272 271 270 269 268
281 281 280 280 281 281 280 280 279 278 276 275 275 275 276 276 276 276 276 276 277 277 277 276 274 273 273 274 274 274 273 273 273 273 272 271 269 268
283 283 282 282 281 280 280 279 279 278 277 276 275 276 277 277 278 278 278 279 278 277 276 275 274 274 274 274 275 275 274 274 273 273 272 271 270 268
283 284 284 283 282 280 280 279 279 279 278 277 277 278 278 279 279 279 279 279 278 277 276 275 274 274 275 275 275 275 275 274 273 273 272 271 271 269
283 284 284 283 282 281 280 280 280 279 279 278 279 280 280 280 280 279 278 278 277 277 276 275 275 274 274 274 274 274 274 274 273 273 273 272 270 269
284 284 284 283 284 282 281 281 281 281 281 281 281 282 282 281 280 280 279 278 277 277 277 276 276 274 274 273 273 273 273 273 272 273 273 273 271 269
285 285 285 285 285 284 282 282 283 283 284 284 284 284 282 281 280 280 279 279 279 279 277 276 275 274 274 273 272 272 271 272 272 273 273 272 271 269
286 286 286 286 287 286 284 284 285 285 285 284 285 285 283 282 282 280 279 280 280 280 278 276 274 274 273 272 272 271 271 272 272 272 272 271 271 270
289 289 289 289 289 287 285 285 285 285 285 286 286 286 285 284 282 281 281 281 281 281 280 277 274 272 271 271 271 271 270 271 271 271 271 272 271 270
289 289 290 290 290 289 287 286 286 286 286 287 287 288 287 285 284 284 285 284 282 282 281 278 274 272 271 271 271 270 269 269 269 269 270 271 271 270
289 289 289 290 291 291 289 288 288 288 288 288 289 289 289 287 286 287 287 286 285 284 281 277 274 272 272 270 269 269 269 269 269 269 270 271 270 270
289 290 290 291 292 292 291 291 291 290 289 289 290 291 291 290 289 289 289 288 287 286 282 277 273 272 273 271 269 268 269 270 270 270 271 270 268 268
291 292 293 292 293 293 293 293 294 293 293 293 292 292 292 291 291 289 289 289 288 286 283 280 276 275 274 273 271 268 268 269 269 269 268 268 266 265
293 294 295 295 295 295 295 295 295 296 296 296 296 295 294 292 292 290 290 290 289 288 287 284 280 277 275 274 272 268 267 267 267 267 267 265 265 264
295 296 296 296 297 297 296 296 297 297 297 297 297 296 295 294 293 292 291 291 291 289 288 286 282 279 276 275 273 268 267 266 265 266 265 264 264 263
296 298 299 299 299 299 299 299 299 299 299 299 298 297 295 292 292 293 293 292 292 289 288 287 283 279 278 276 275 272 268 265 265 265 264 264 264 263
299 300 301 301 301 302 304 304 304 303 303 304 303 301 298 295 293 295 294 294 295 293 290 287 286 283 280 276 274 272 267 265 267 266 264 266 265 262
300 301 302 303 304 305 307 307 308 308 309 308 307 304 302 299 297 298 297 297 298 297 293 291 291 287 283 281 278 273 270 269 268 267 268 268 265 262
301 302 303 305 307 309 310 310 310 311 312 311 310 308 306 304 303 301 301 301 303 301 298 297 296 291 287 285 281 278 277 275 269 266 264 261 258 257
303 304 306 308 311 313 314 313 313 315 316 315 313 310 309 308 305 304 305 308 310 310 306 303 301 299 294 287 282 278 277 276 271 263 261 260 261 257
306 306 308 309 312 316 318 318 317 317 317 316 315 314 314 313 311 309 311 313 313 310 309 308 305 302 298 292 287 280 274 273 268 266 265 265 266 264
Height
5640 5638 5636 5634 5632 5629 5627 5624 5622 5621 5621 5618 5616 5614 5613 5612 5610 5609 5608 5607 5605 5603 5601 5600 5598 5597 5596 5594 5593 5592 5591 5591 5590 5590 5590 5590 5591 5591
5627 5625 5623 5621 5618 5616 5613 5610 5607 5606 5605 5604 5601 5600 5598 5597 5596 5594 5593 5592 5590 5588 5586 5585 5584 5582 5581 5580 5579 5578 5577 5576 5575 5575 5574 5574 5575 5576
5613 5612 5609 5607 5605 5602 5600 5597 5594 5592 5591 5590 5588 5586 5585 5583 5582 5580 5579 5577 5576 5574 5572 5571 5569 5568 5567 5566 5564 5564 5563 5562 5561 5561 5560 5560 5560 5561
5600 5598 5596 5594 5592 5589 5587 5584 5582 5579 5578 5578 5576 5574 5572 5570 5569 5567 5565 5563 5561 5560 5558 5557 5555 5554 5553 5552 5551 5550 5549 5548 5547 5547 5546 5546 5546 5545
5588 5586 5583 5581 5579 5576 5574 5572 5570 5568 5566 5565 5564 5562 5560 5558 5556 5553 5551 5549 5547 5545 5544 5543 5542 5541 5540 5539 5538 5537 5536 5535 5534 5533 5532 5532 5532 5532
5577 5574 5571 5569 5566 5564 5562 5560 5558 5556 5554 5553 5552 5550 5548 5545 5542 5540 5538 5536 5534 5532 5531 5530 5529 5528 5527 5526 5526 5525 5523 5522 5521 5521 5520 5519 5519 5519
5566 5563 5560 5558 5555 5552 5551 5549 5547 5545 5543 5541 5539 5537 5535 5532 5529 5527 5525 5523 5521 5519 5518 5517 5516 5516 5515 5514 5513 5512 5511 5510 5510 5509 5508 5508 5508 5508
5556 5553 5550 5547 5545 5542 5539 5537 5535 5533 5531 5529 5527 5525 5522 5519 5516 5514 5512 5511 5510 5508 5506 5505 5504 5503 5502 5502 5501 5501 5500 5499 5498 5498 5497 5497 5497 5497
5545 5543 5540 5537 5535 5532 5529 5527 5525 5522 5520 5518 5515 5513 5510 5508 5505 5503 5501 5499 5497 5495 5494 5494 5492 5491 5490 5490 5490 5489 5489 5488 5488 5487 5487 5486 5486 5486
5536 5533 5531 5528 5525 5522 5520 5518 5515 5513 5510 5507 5505 5502 5498 5496 5494 5492 5490 5488 5486 5484 5482 5482 5481 5480 5479 5479 5479 5478 5478 5478 5477 5477 5477 5476 5476 5476
5526 5524 5521 5519 5516 5513 5510 5508 5506 5503 5500 5497 5494 5491 5488 5485 5483 5481 5479 5477 5476 5474 5471 5471 5470 5469 5469 5469 5468 5467 5467 5467 5467 5467 5467 5467 5467 5466
5518 5515 5513 5510 5507 5503 5501 5499 5497 5494 5491 5488 5485 5482 5479 5476 5474 5472 5469 5467 5466 5464 5462 5460 5460 5459 5460 5459 5458 5458 5457 5458 5458 5458 5458 5458 5457 5457
5510 5507 5505 5502 5499 5495 5493 5490 5488 5485 5482 5480 5477 5474 5471 5468 5465 5463 5460 5458 5457 5455 5453 5451 5450 5449 5449 5450 5450 5449 5448 5449 5449 5449 5449 5449 5448 5448
5502 5499 5496 5494 5491 5488 5485 5482 5480 5477 5474 5471 5469 5466 5463 5460 5457 5454 5452 5450 5448 5446 5444 5442 5442 5441 5441 5441 5442 5441 5440 5440 5440 5440 5440 5440 5440 5440
5494 5491 5489 5486 5483 5480 5478 5475 5472 5469 5466 5464 5461 5458 5455 5452 5450 5447 5445 5443 5441 5439 5437 5435 5435 5434 5434 5434 5433 5433 5433 5432 5432 5432 5432 5432 5432 5433
5487 5484 5481 5479 5476 5473 5470 5468 5465 5462 5459 5457 5454 5451 5448 5445 5443 5440 5438 5436 5434 5433 5431 5429 5428 5427 5427 5427 5426 5426 5425 5425 5425 5425 5425 5425 5426 5426
5480 5477 5475 5472 5470 5467 5464 5461 5459 5456 5453 5450 5447 5444 5442 5439 5437 5434 5432 5431 5429 5427 5426 5424 5423 5422 5421 5421 5420 5420 5419 5419 5419 5419 5419 5419 5420 5420
5474 5471 5469 5466 5463 5461 5458 5455 5453 5450 5447 5444 5441 5438 5436 5433 5431 5429 5427 5426 5424 5422 5421 5419 5418 5417 5417 5416 5415 5415 5414 5414 5414 5414 5414 5414 5414 5415
5468 5465 5463 5460 5458 5455 5453 5450 5447 5444 5441 5438 5436 5433 5430 5428 5426 5425 5423 5421 5420 5418 5417 5415 5414 5413 5413 5412 5411 5410 5410 5410 5410 5409 5409 5409 5410 5410
5463 5460 5458 5455 5453 5450 5447 5445 5442 5439 5436 5434 5431 5428 5426 5424 5422 5421 5419 5418 5416 5415 5413 5412 5411 5410 5409 5408 5407 5407 5406 5406 5405 5405 5405 5405 5405 5406
5458 5455 5453 5450 5448 5445 5443 5440 5438 5435 5432 5430 5427 5425 5423 5421 5420 5418 5417 5415 5413 5412 5410 5409 5408 5406 5405 5405 5404 5403 5403 5402 5402 5401 5402 5402 5402 5402
5453 5451 5448 5446 5444 5441 5439 5436 5434 5431 5429 5427 5424 5422 5421 5419 5417 5416 5414 5413 5411 5409 5408 5406 5405 5404 5403 5402 5401 5401 5400 5399 5398 5398 5399 5399 5399 5399
5449 5447 5445 5442 5440 5438 5435 5433 5431 5428 5426 5424 5422 5420 5418 5417 5415 5414 5412 5411 5409 5407 5406 5404 5403 5402 5400 5400 5399 5398 5398 5397 5397 5396 5396 5396 5396 5396